Terminal Aerodrome Forecast
Issued by NWS

Current Version | Previous Version | Graphics & Text | Print | Product List | Glossary On
Versions: 1 2 3 4 5 6 7 8 9 10 11 12
000
FTUS41 KILN 161100
TAFLCK
TAF
KLCK 161136Z 1612/1712 VRB03KT P6SM SKC
     FM161400 11008KT P6SM SCT250
     FM170000 11006KT P6SM BKN250=

USA.gov is the U.S. government's official web portal to all federal, state and local government web resources and services.